"2010-09-21 00:00:00",178861,8.05,321,1.107,0.092,21.52,109.4332,23.44,24.3,20.9,0,111.1,13.14,24.27,283.0
"2010-09-21 00:00:30",178862,7.916,321.5,1.093,0.136,21.51,109.4363,23.45,24.3,20.86,0,111.1,13.14,24.28,283.5
"2010-09-21 00:01:00",178863,8.09,320.9,1.57,0.201,21.52,109.4387,23.45,24.3,20.78,0,111.1,13.14,24.29,282.9
"2010-09-21 00:01:30",178864,7.705,322.1,1.259,0.227,21.41,109.44,23.46,24.31,20.82,0,111.1,13.14,24.29,284.1
"2010-09-21 00:02:00",178865,7.976,320.9,2.656,0.22,21.45,109.4403,23.46,24.3,20.75,0,111.1,13.14,24.29,282.9
"2010-09-21 00:02:30",178866,8.11,323.8,3.671,0.512,21.36,109.4394,23.45,24.31,20.84,0,111.1,13.14,24.29,285.8
"2010-09-21 00:03:00",178867,8.85,323.6,1.685,0.469,21.44,109.4403,23.46,24.31,20.71,0,111.1,13.14,24.29,285.6
"2010-09-21 00:03:30",178868,9.21,324.1,1.68,0.385,21.57,109.44,23.46,24.31,20.54,0,111.1,13.14,24.29,286.1
"2010-09-21 00:04:00",178869,8.82,324.5,2.01,0.288,21.57,109.4403,23.46,24.31,20.47,0,111,13.14,24.29,286.5
"2010-09-21 00:04:30",178870,8.57,324,1.267,0.23,21.47,109.4403,23.46,24.3,20.59,0,111,13.14,24.29,286.0
"2010-09-21 00:05:00",178871,8.8,321.6,1.158,0.293,21.54,109.4403,23.46,24.31,20.56,0,111,13.14,24.29,283.6
"2010-09-21 00:05:30",178872,9.35,320.2,3.181,0.189,21.58,109.4403,23.46,24.32,20.55,0,111,13.14,24.29,282.2
"2010-09-21 00:06:00",178873,9.45,321.1,2.872,0.27,21.61,109.4412,23.46,24.33,20.47,0,111,13.14,24.29,283.1
"2010-09-21 00:06:30",178874,9.35,321.6,1.775,0.174,21.62,109.4487,23.48,24.33,20.37,0,111,13.14,24.31,283.6
"2010-09-21 00:07:00",178875,8.93,321,2.121,0.189,21.58,109.4516,23.49,24.35,20.34,0,111,13.14,24.32,283.0
"2010-09-21 00:07:30",178876,8.83,322.8,1.539,0.126,21.6,109.458,23.5,24.36,20.29,0,111,13.14,24.34,284.8
"2010-09-21 00:08:00",178877,8.82,322.5,1.594,0.151,21.6,109.4653,23.52,24.37,20.32,0,111,13.14,24.35,284.5
"2010-09-21 00:08:30",178878,9.13,320.7,1.347,0.291,21.54,109.4687,23.53,24.37,20.3,0,111,13.14,24.36,282.7
"2010-09-21 00:09:00",178879,9.43,318.1,1.429,0.186,21.52,109.4673,23.53,24.37,20.4,0,111,13.14,24.36,280.1
"2010-09-21 00:09:30",178880,9.37,319,1.078,0.157,21.66,109.4679,23.53,24.4,20.3,0,111,13.14,24.36,281.0
"2010-09-21 00:10:00",178881,9.1,320.4,0.968,0.22,21.58,109.4746,23.54,24.38,20.26,0,111,13.15,24.38,282.4
"2010-09-21 00:10:30",178882,8.96,320.1,0.863,0.156,21.67,109.4746,23.54,24.4,20.18,0,111,13.15,24.38,282.1
"2010-09-21 00:11:00",178883,8.69,319.1,1.022,0.144,21.68,109.475,23.55,24.42,20.1,0,111,13.15,24.38,281.1
"2010-09-21 00:11:30",178884,8.22,316.6,1.045,0.159,21.71,109.477,23.55,24.42,20.05,0,111,13.15,24.39,278.6
"2010-09-21 00:12:00",178885,8.34,318.1,2.368,0.2,21.72,109.4861,23.57,24.44,20.04,0,111,13.15,24.41,280.1
"2010-09-21 00:12:30",178886,8.53,318.9,1.748,0.334,21.71,109.5018,23.61,24.45,20.04,0,111,13.15,24.45,280.9
"2010-09-21 00:13:00",178887,9.44,319.6,1.767,0.361,21.77,109.5117,23.64,24.46,19.96,0,111,13.15,24.47,281.6
"2010-09-21 00:13:30",178888,9.35,316.1,1.607,0.219,21.82,109.5105,23.64,24.47,19.9,0,111,13.15,24.47,278.1
"2010-09-21 00:14:00",178889,8.82,318.8,1.93,0.296,21.72,109.5123,23.64,24.5,19.88,0,111,13.15,24.48,280.8
"2010-09-21 00:14:30",178890,8.72,319.1,1.226,0.29,21.7,109.5196,23.66,24.53,19.84,0,111,13.15,24.49,281.1
"2010-09-21 00:15:00",178891,8.74,318,1.603,0.329,21.72,109.5243,23.67,24.52,19.79,0,111,13.15,24.51,280.0
"2010-09-21 00:15:30",178892,9,314.3,1.447,0.208,21.77,109.5375,23.71,24.54,19.78,0,111,13.15,24.54,276.3
"2010-09-21 00:16:00",178893,8.63,317.8,0.963,0.118,21.73,109.5499,23.74,24.55,19.71,0,111,13.15,24.57,279.8
"2010-09-21 00:16:30",178894,8.75,320.4,0.752,0.251,21.74,109.5504,23.74,24.56,19.5,0,111,13.15,24.57,282.4
"2010-09-21 00:17:00",178895,8.82,319.9,0.805,0.172,21.77,109.5525,23.75,24.58,19.4,0,111,13.15,24.58,281.9
"2010-09-21 00:17:30",178896,8.7,319.1,1.468,0.224,21.74,109.5564,23.75,24.6,19.41,0,111,13.15,24.59,281.1
"2010-09-21 00:18:00",178897,8.47,319.2,3.409,0.432,21.75,109.5652,23.78,24.6,19.43,0,111,13.15,24.61,281.2
"2010-09-21 00:18:30",178898,8.16,323.6,0.786,0.159,21.73,109.5681,23.79,24.62,19.41,0,111,13.15,24.62,285.6
"2010-09-21 00:19:00",178899,7.907,318.5,3.492,0.292,21.86,109.5733,23.8,24.63,19.37,0,111,13.15,24.63,280.5
"2010-09-21 00:19:30",178900,7.5,321.5,0.994,0.32,21.81,109.5902,23.84,24.65,19.31,0,111,13.15,24.68,283.5
"2010-09-21 00:20:00",178901,8.6,313.9,4.428,0.53,21.89,109.5978,23.86,24.67,19.2,0,111,13.15,24.70,275.9
"2010-09-21 00:20:30",178902,7.979,321.2,1.516,0.185,21.71,109.5998,23.87,24.68,19.33,0,111,13.15,24.70,283.2
"2010-09-21 00:21:00",178903,8.54,318.9,2.468,0.421,21.8,109.6007,23.87,24.68,19.34,0,111,13.15,24.70,280.9
"2010-09-21 00:21:30",178904,8.17,317.8,3.18,0.695,21.85,109.6026,23.87,24.7,19.23,0,111,13.15,24.71,279.8
"2010-09-21 00:22:00",178905,7.903,320,1.281,0.186,21.86,109.6029,23.87,24.71,19.28,0,111,13.15,24.71,282.0
"2010-09-21 00:22:30",178906,7.839,317.4,2.048,0.308,21.88,109.6043,23.88,24.71,19.26,0,111,13.15,24.71,279.4
"2010-09-21 00:23:00",178907,9.19,315,2.81,0.356,22.09,109.6147,23.9,24.73,18.87,0,111,13.14,24.74,277.0
"2010-09-21 00:23:30",178908,9.47,307.8,1.681,0.529,21.85,109.6355,23.96,24.75,18.83,0,111,13.15,24.79,269.8
"2010-09-21 00:24:00",178909,8.16,318,3.462,0.234,21.75,109.6363,23.96,24.76,19.09,0,111,13.15,24.80,280.0
"2010-09-21 00:24:30",178910,8.27,314.2,2.493,0.45,21.88,109.6372,23.96,24.76,18.96,0,111,13.14,24.80,276.2
"2010-09-21 00:25:00",178911,8.35,310.4,4.236,0.466,21.86,109.6369,23.96,24.75,18.91,0,111,13.15,24.80,272.4
"2010-09-21 00:25:30",178912,8.85,305.5,3.42,0.42,21.92,109.6382,23.96,24.79,18.89,0,111,13.15,24.80,267.5
"2010-09-21 00:26:00",178913,7.588,314.9,2.853,0.37,21.85,109.6369,23.96,24.79,18.83,0,111,13.15,24.80,276.9
"2010-09-21 00:26:30",178914,8.39,312.1,3.146,0.363,21.78,109.6391,23.97,24.8,18.94,0,111,13.15,24.80,274.1
"2010-09-21 00:27:00",178915,8.17,314.5,5.488,0.588,21.84,109.6391,23.97,24.8,18.92,0,111,13.15,24.80,276.5
"2010-09-21 00:27:30",178916,7.781,311,2.603,0.613,21.91,109.6431,23.98,24.81,18.74,0,111,13.15,24.81,273.0
"2010-09-21 00:28:00",178917,7.538,313.9,3.357,1.025,21.95,109.6443,23.98,24.82,18.64,0,111,13.15,24.82,275.9
"2010-09-21 00:28:30",178918,8.21,315.9,4.839,0.577,21.86,109.6469,23.99,24.84,18.61,0,111,13.16,24.82,277.9
"2010-09-21 00:29:00",178919,8.23,310.7,3.702,0.775,21.8,109.6458,23.98,24.83,18.72,0,111,13.16,24.82,272.7
"2010-09-21 00:29:30",178920,8.84,305.7,6.858,0.836,21.87,109.6459,23.98,24.84,18.69,0,111,13.15,24.82,267.7
"2010-09-21 00:30:00",178921,8.51,318.8,2.704,0.875,21.86,109.6452,23.98,24.84,18.69,0,111,13.16,24.82,280.8
"2010-09-21 00:30:30",178922,7.51,304.5,3.011,0.59,21.81,109.6459,23.98,24.83,18.75,0,111,13.16,24.82,266.5
"2010-09-21 00:31:00",178923,8.57,314.1,4.815,0.539,21.89,109.6459,23.98,24.84,18.59,0,111,13.16,24.82,276.1
"2010-09-21 00:31:30",178924,7.612,310.4,2.346,0.596,21.85,109.6506,24,24.84,18.5,0,111,13.16,24.83,272.4
"2010-09-21 00:32:00",178925,8.16,312.8,3.972,0.949,21.84,109.6549,24.01,24.86,18.49,0,111,13.16,24.84,274.8
"2010-09-21 00:32:30",178926,9.71,306.7,2.89,0.594,21.8,109.6602,24.02,24.87,18.38,0,111,13.16,24.86,268.7
"2010-09-21 00:33:00",178927,9.48,303,2.625,0.692,21.72,109.661,24.02,24.87,18.46,0,111,13.16,24.86,265.0
"2010-09-21 00:33:30",178928,8.67,298.5,2.7,0.571,21.64,109.6613,24.02,24.87,18.58,0,111,13.16,24.86,260.5
"2010-09-21 00:34:00",178929,9.1,308.5,3.385,1.145,21.66,109.6582,24.02,24.86,18.64,0,111,13.16,24.85,270.5
"2010-09-21 00:34:30",178930,9.41,305.8,5.651,1.182,21.65,109.6647,24.03,24.88,18.45,0,111,13.16,24.87,267.8
"2010-09-21 00:35:00",178931,10.67,301.6,6.364,0.698,21.69,109.672,24.05,24.88,18.41,0,111,13.16,24.89,263.6
"2010-09-21 00:35:30",178932,10.29,305.9,3.258,0.644,21.63,109.6782,24.07,24.89,18.38,0,111,13.16,24.90,267.9
"2010-09-21 00:36:00",178933,10.17,310.8,3.143,0.639,21.63,109.6793,24.07,24.9,18.42,0,111,13.16,24.91,272.8
"2010-09-21 00:36:30",178934,10.61,314.5,2.82,0.529,21.59,109.6796,24.07,24.91,18.62,0,111,13.16,24.91,276.5
"2010-09-21 00:37:00",178935,11.24,307.6,9.27,1.416,21.69,109.6796,24.07,24.91,18.44,0,111,13.16,24.91,269.6
"2010-09-21 00:37:30",178936,10.6,297.3,6.459,1.726,21.72,109.6796,24.07,24.92,18.29,0,111,13.16,24.91,259.3
"2010-09-21 00:38:00",178937,9.88,310.2,6.741,1.683,21.68,109.6796,24.07,24.93,18.29,0,111,13.16,24.91,272.2
"2010-09-21 00:38:30",178938,10.33,309.6,5.076,1.097,21.74,109.681,24.07,24.94,18.18,0,111,13.15,24.91,271.6
"2010-09-21 00:39:00",178939,8.55,311.3,4.881,0.648,21.67,109.6855,24.09,24.96,18.23,0,111,13.15,24.92,273.3
"2010-09-21 00:39:30",178940,10.47,303.3,4.264,1.331,21.63,109.6872,24.09,24.97,18.31,0,111,13.15,24.93,265.3
"2010-09-21 00:40:00",178941,10.58,290.7,3.537,0.524,21.67,109.6855,24.09,24.97,18.33,0,111,13.15,24.92,252.7
"2010-09-21 00:40:30",178942,7.605,288.5,7.46,0.888,21.54,109.6821,24.08,24.97,18.46,0,111,13.15,24.91,250.5
"2010-09-21 00:41:00",178943,8.37,303,7.356,1.282,21.65,109.6796,24.07,24.96,18.44,0,111,13.15,24.91,265.0
"2010-09-21 00:41:30",178944,10.42,306.4,2.877,0.557,21.69,109.6796,24.07,24.95,18.26,0,111,13.15,24.91,268.4
"2010-09-21 00:42:00",178945,8.77,296.2,8.56,0.923,21.58,109.6796,24.07,24.93,18.41,0,111,13.16,24.91,258.2
"2010-09-21 00:42:30",178946,8.22,299.2,4.092,0.578,21.51,109.6787,24.07,24.96,18.64,0,111,13.16,24.90,261.2
"2010-09-21 00:43:00",178947,9.31,298.7,6.699,1.124,21.65,109.6638,24.03,24.92,18.59,0,111,13.16,24.87,260.7
"2010-09-21 00:43:30",178948,11.53,303.4,1.715,0.641,21.7,109.6625,24.03,24.93,18.44,0,111,13.16,24.86,265.4
"2010-09-21 00:44:00",178949,10.51,297.6,2.78,0.839,21.72,109.6709,24.05,24.91,18.36,0,111,13.16,24.88,259.6
"2010-09-21 00:44:30",178950,8.99,298.2,3.168,0.489,21.63,109.6706,24.05,24.92,18.48,0,111,13.16,24.88,260.2
"2010-09-21 00:45:00",178951,8.8,304.9,2.023,0.298,21.68,109.6672,24.04,24.92,18.45,0,111,13.16,24.88,266.9
"2010-09-21 00:45:30",178952,8.45,304.7,3.903,0.407,21.71,109.6644,24.03,24.94,18.43,0,111,13.16,24.87,266.7
"2010-09-21 00:46:00",178953,8.35,307.7,2.701,0.895,21.66,109.6633,24.03,24.92,18.49,0,111,13.16,24.87,269.7
"2010-09-21 00:46:30",178954,10.34,300.2,3.761,0.419,21.75,109.6577,24.02,24.91,18.45,0,111,13.16,24.85,262.2
"2010-09-21 00:47:00",178955,9.64,299.6,2.482,0.631,21.74,109.658,24.02,24.9,18.43,0,111,13.16,24.85,261.6
"2010-09-21 00:47:30",178956,10.71,300.7,7.54,1.153,21.85,109.6619,24.03,24.92,18.39,0,111,13.16,24.86,262.7
"2010-09-21 00:48:00",178957,10.27,298.8,7.278,0.809,21.82,109.6681,24.04,24.92,18.29,0,111,13.16,24.88,260.8
"2010-09-21 00:48:30",178958,9.32,301.3,8.63,0.84,21.83,109.6731,24.05,24.93,18.38,0,111,13.16,24.89,263.3
"2010-09-21 00:49:00",178959,7.833,306.9,4.023,0.812,21.76,109.6681,24.04,24.93,18.49,0,111,13.16,24.88,268.9
"2010-09-21 00:49:30",178960,7.111,307.7,7.482,0.912,21.76,109.6599,24.02,24.91,18.51,0,111,13.16,24.86,269.7
"2010-09-21 00:50:00",178961,6.955,304.6,4.854,1.122,21.74,109.6459,23.98,24.9,18.56,0,111,13.16,24.82,266.6
"2010-09-21 00:50:30",178962,7.115,306.9,4.359,0.637,21.73,109.6459,23.98,24.89,18.61,0,111,13.16,24.82,268.9
"2010-09-21 00:51:00",178963,7.093,301.9,3.095,0.477,21.71,109.6459,23.98,24.86,18.66,0,111,13.16,24.82,263.9
"2010-09-21 00:51:30",178964,7.078,292.3,7.243,0.707,21.74,109.6287,23.94,24.85,18.75,0,111,13.16,24.78,254.3
"2010-09-21 00:52:00",178965,7.571,288.6,4.424,0.823,21.7,109.6138,23.9,24.83,18.88,0,111,13.16,24.74,250.6
"2010-09-21 00:52:30",178966,9.17,299.9,6.532,0.805,21.68,109.6121,23.9,24.82,19.04,0,111,13.16,24.73,261.9
"2010-09-21 00:53:00",178967,7.473,278.3,8.51,1.344,21.67,109.6076,23.89,24.79,19.13,0,111,13.16,24.72,240.3
"2010-09-21 00:53:30",178968,7.135,272.5,6.248,0.468,21.67,109.5821,23.82,24.78,19.24,0,111,13.16,24.66,234.5
"2010-09-21 00:54:00",178969,7.626,290.3,10.63,0.997,21.67,109.5784,23.81,24.74,19.26,0,111,13.16,24.65,252.3
"2010-09-21 00:54:30",178970,8.27,283,7.784,1.27,21.69,109.5717,23.79,24.72,19.31,0,111,13.16,24.63,245.0
"2010-09-21 00:55:00",178971,8.37,307.1,7.314,1.355,21.72,109.5548,23.75,24.71,19.27,0,111,13.16,24.59,269.1
"2010-09-21 00:55:30",178972,6.708,304.3,4.568,1.263,21.6,109.5475,23.73,24.69,19.41,0,111,13.16,24.57,266.3
"2010-09-21 00:56:00",178973,5.868,302.7,12.18,0.962,21.69,109.5447,23.72,24.67,19.32,0,111,13.16,24.56,264.7
"2010-09-21 00:56:30",178974,5.786,307.6,6.001,0.965,21.61,109.543,23.72,24.65,19.41,0,111,13.16,24.56,269.6
"2010-09-21 00:57:00",178975,9.2,303.2,9.16,1.016,21.62,109.5219,23.67,24.61,19.46,0,111,13.16,24.50,265.2
"2010-09-21 00:57:30",178976,9.47,287.4,6.063,1.435,21.61,109.5135,23.64,24.61,19.53,0,111,13.16,24.48,249.4
"2010-09-21 00:58:00",178977,10.95,297.1,5.19,2.04,21.62,109.511,23.64,24.58,19.49,0,111,13.16,24.47,259.1
"2010-09-21 00:58:30",178978,14.27,302.9,4.448,0.706,21.68,109.511,23.64,24.58,19.32,0,111,13.16,24.47,264.9
"2010-09-21 00:59:00",178979,15.18,299.3,3.972,1.092,21.66,109.511,23.64,24.57,19.18,0,111,13.16,24.47,261.3
"2010-09-21 00:59:30",178980,17.28,300.5,2.138,0.847,21.76,109.511,23.64,24.57,19.15,0,111,13.16,24.47,262.5
"2010-09-21 01:00:00",178981,17.29,296.5,2.077,0.436,21.89,109.511,23.64,24.57,18.54,0,111,13.16,24.47,258.5
"2010-09-21 01:00:30",178982,17.03,296.8,2.459,0.408,21.78,109.5177,23.66,24.56,18.93,0,111,13.16,24.49,258.8
"2010-09-21 01:01:00",178983,16.6,291.2,1.974,0.252,22.02,109.5379,23.71,24.59,18.3,0,111,13.16,24.54,253.2
"2010-09-21 01:01:30",178984,14.99,288.5,2.086,0.838,21.84,109.5447,23.72,24.61,18.12,0,111,13.17,24.56,250.5
"2010-09-21 01:02:00",178985,15.24,288.3,3.247,1.128,21.87,109.5498,23.74,24.62,18.32,0,111,13.17,24.57,250.3
"2010-09-21 01:02:30",178986,16.44,289.3,1.262,0.618,22.02,109.5683,23.79,24.66,17.41,0,111,13.17,24.62,251.3
"2010-09-21 01:03:00",178987,14.98,293.9,3.756,0.637,21.83,109.5784,23.81,24.67,17.01,0,111,13.17,24.65,255.9
"2010-09-21 01:03:30",178988,14.95,293.9,2.803,0.829,21.63,109.5784,23.81,24.69,17.95,0,111,13.17,24.65,255.9
"2010-09-21 01:04:00",178989,16.57,292.7,2.507,1.06,21.71,109.5795,23.81,24.7,17.77,0,111,13.17,24.65,254.7
"2010-09-21 01:04:30",178990,17.77,289.9,1.853,0.993,21.87,109.5852,23.83,24.71,17.08,0,111,13.17,24.66,251.9
"2010-09-21 01:05:00",178991,18.03,289.3,1.458,0.804,21.98,109.6023,23.87,24.73,16.63,0,111,13.17,24.71,251.3
"2010-09-21 01:05:30",178992,17.04,288.4,0.923,0.527,21.95,109.6113,23.9,24.74,16.42,0,111,13.17,24.73,250.4
"2010-09-21 01:06:00",178993,16.21,292.2,2.084,0.674,21.76,109.6121,23.9,24.77,16.48,0,111,13.17,24.73,254.2
"2010-09-21 01:06:30",178994,15.37,294.6,2.179,0.859,21.63,109.6127,23.9,24.78,16.95,0,111,13.17,24.73,256.6
"2010-09-21 01:07:00",178995,13.87,287.7,2.187,1.119,22.05,109.6147,23.9,24.8,16.61,0,111,13.17,24.74,249.7
"2010-09-21 01:07:30",178996,14.2,290.2,2.017,0.536,21.95,109.6357,23.96,24.81,16.02,0,111,13.17,24.79,252.2
"2010-09-21 01:08:00",178997,14.04,289.5,1.308,0.312,22.09,109.6459,23.98,24.83,15.97,0,111,13.17,24.82,251.5
"2010-09-21 01:08:30",178998,15.19,290,3.833,0.777,22.31,109.6608,24.02,24.86,15.16,0,111,13.17,24.86,252.0
"2010-09-21 01:09:00",178999,14.14,290.5,2.569,1.151,22.11,109.6793,24.07,24.89,15.4,0,111,13.17,24.91,252.5
"2010-09-21 01:09:30",179000,14.37,293.1,3.448,0.451,21.93,109.6821,24.08,24.93,15.83,0,111,13.17,24.91,255.1
"2010-09-21 01:10:00",179001,12.31,287,2.266,0.583,21.95,109.6987,24.12,24.96,15.97,0,111,13.17,24.96,249.0
"2010-09-21 01:10:30",179002,12.65,281.4,2.349,0.704,22.13,109.7128,24.16,25,15.7,0,111,13.17,24.99,243.4
"2010-09-21 01:11:00",179003,11.63,290.3,4.194,0.522,21.88,109.7136,24.16,25.02,15.88,0,111,13.17,24.99,252.3
"2010-09-21 01:11:30",179004,10.83,288.8,4.249,0.469,21.87,109.7142,24.16,25.03,16.03,0,111,13.16,25.00,250.8
"2010-09-21 01:12:00",179005,10.82,288.9,2.2,0.375,22.01,109.7177,24.17,25.05,15.89,0,111,13.16,25.01,250.9
"2010-09-21 01:12:30",179006,10.73,290.9,1.87,0.45,21.9,109.7176,24.17,25.05,16.07,0,111,13.16,25.01,252.9
"2010-09-21 01:13:00",179007,10.06,288.8,2.805,0.641,22.02,109.7195,24.17,25.07,15.99,0,111,13.16,25.01,250.8
"2010-09-21 01:13:30",179008,10.57,288.6,2.383,0.438,21.96,109.7221,24.18,25.08,15.93,0,111,13.16,25.02,250.6
"2010-09-21 01:14:00",179009,11.3,292,3.056,0.503,21.89,109.7224,24.18,25.08,15.99,0,111,13.16,25.02,254.0
"2010-09-21 01:14:30",179010,11.45,292.9,2.215,0.315,21.91,109.7201,24.18,25.08,15.93,0,111,13.16,25.01,254.9
"2010-09-21 01:15:00",179011,10.96,291.7,0.902,0.251,21.85,109.7156,24.16,25.08,16.06,0,111,13.16,25.00,253.7
"2010-09-21 01:15:30",179012,11.89,295.1,2.136,0.392,22.06,109.7146,24.16,25.09,16.65,0,111,13.16,25.00,257.1
"2010-09-21 01:16:00",179013,12.25,297.2,1.197,0.235,22.07,109.717,24.17,25.07,16.2,0,111,13.16,25.00,259.2
"2010-09-21 01:16:30",179014,12.97,296.7,0.957,0.247,21.91,109.7204,24.18,25.11,16.25,0,111,13.17,25.01,258.7
"2010-09-21 01:17:00",179015,13.78,297.8,1.315,0.451,21.7,109.7156,24.16,25.11,16.48,0,111,13.17,25.00,259.8
"2010-09-21 01:17:30",179016,13.61,299,0.938,0.32,21.79,109.7142,24.16,25.1,16.77,0,111,13.17,25.00,261.0
"2010-09-21 01:18:00",179017,12.82,299.6,1.351,0.267,21.83,109.7158,24.16,25.07,16.98,0,111,13.17,25.00,261.6
"2010-09-21 01:18:30",179018,12.7,298.3,2.185,0.311,21.9,109.7149,24.16,25.08,16.74,0,111,13.17,25.00,260.3
"2010-09-21 01:19:00",179019,11.65,298.3,1.848,0.531,21.78,109.7145,24.16,25.06,17.09,0,111,13.17,25.00,260.3
"2010-09-21 01:19:30",179020,11.31,301,2.26,0.948,21.59,109.6903,24.1,25.07,18.14,0,111,13.17,24.93,263.0
"2010-09-21 01:20:00",179021,13.28,299.5,1.396,0.464,21.79,109.6833,24.08,25.04,17.72,0,111,13.17,24.92,261.5
"2010-09-21 01:20:30",179022,13.11,296.7,1.232,0.137,21.88,109.6833,24.08,25.02,16.97,0,111,13.17,24.92,258.7
"2010-09-21 01:21:00",179023,12.99,295.2,1.352,0.444,21.83,109.6839,24.08,25.01,16.94,0,111,13.17,24.92,257.2
"2010-09-21 01:21:30",179024,13.32,295.8,1.676,0.335,21.79,109.6786,24.07,25.01,17.07,0,111,13.17,24.90,257.8
"2010-09-21 01:22:00",179025,12.68,293.1,2.342,0.449,21.79,109.6715,24.05,25,17.28,0,111,13.17,24.89,255.1
"2010-09-21 01:22:30",179026,11.76,295.9,2.26,0.355,21.63,109.6523,24,24.97,17.61,0,111,13.17,24.84,257.9
"2010-09-21 01:23:00",179027,12.29,294.3,2.192,0.519,21.65,109.6517,24,24.97,17.95,0,111,13.17,24.84,256.3
"2010-09-21 01:23:30",179028,11.9,285.2,2.849,0.425,21.66,109.6435,23.98,24.93,18.09,0,111,13.17,24.81,247.2
"2010-09-21 01:24:00",179029,12.16,288.5,0.795,0.25,21.71,109.6237,23.93,24.93,18.11,0,111,13.17,24.76,250.5
"2010-09-21 01:24:30",179030,11.43,288.5,3.326,0.323,21.72,109.6189,23.92,24.9,18.17,0,111,13.17,24.75,250.5
"2010-09-21 01:25:00",179031,11.09,286.3,2.147,0.316,21.63,109.6149,23.91,24.87,18.36,0,111,13.17,24.74,248.3
"2010-09-21 01:25:30",179032,10.35,284.6,1.234,0.248,21.69,109.5986,23.86,24.86,18.33,0,111,13.17,24.70,246.6
"2010-09-21 01:26:00",179033,9.81,285.8,1.736,0.553,21.67,109.5855,23.83,24.82,18.29,0,111,13.17,24.66,247.8
"2010-09-21 01:26:30",179034,9.62,286.4,2.543,0.246,21.64,109.5846,23.83,24.8,18.5,0,111,13.17,24.66,248.4
"2010-09-21 01:27:00",179035,9.16,280.6,1.511,0.344,21.64,109.5679,23.78,24.77,18.57,0,111,13.17,24.62,242.6
"2010-09-21 01:27:30",179036,8.76,271.9,6.188,0.617,21.41,109.5535,23.75,24.75,18.5,0,111,13.17,24.58,233.9
"2010-09-21 01:28:00",179037,7.803,257.1,6.122,0.356,21.37,109.5344,23.7,24.69,18.62,0,111,13.17,24.53,219.1
"2010-09-21 01:28:30",179038,8.43,256.6,6.995,1.101,21.54,109.5156,23.65,24.65,18.66,0,111,13.17,24.48,218.6
"2010-09-21 01:29:00",179039,8.83,259.2,5.357,0.469,21.59,109.4888,23.58,24.62,18.75,0,111,13.17,24.42,221.2
"2010-09-21 01:29:30",179040,8.88,248.5,7.223,0.446,21.46,109.4896,23.58,24.59,18.73,0,111,13.17,24.42,210.5
"2010-09-21 01:30:00",179041,9.74,241.6,3.886,0.865,21.07,109.4618,23.51,24.55,18.35,0,111,13.17,24.35,203.6
"2010-09-21 01:30:30",179042,9.92,241.9,2.333,0.433,21.24,109.4307,23.43,24.49,18.6,0,111,13.17,24.27,203.9
"2010-09-21 01:31:00",179043,9.61,245.7,5.222,0.717,21.4,109.4231,23.41,24.44,19.03,0,111,13.17,24.25,207.7
"2010-09-21 01:31:30",179044,9.08,256.7,11.85,1.156,21.22,109.4015,23.36,24.39,18.96,0,111,13.17,24.19,218.7
"2010-09-21 01:32:00",179045,7.879,251.1,5.015,0.862,21.31,109.3855,23.32,24.34,19.06,0,111,13.17,24.15,213.1
"2010-09-21 01:32:30",179046,8.5,251.3,5.332,0.628,21.49,109.3657,23.27,24.29,19.31,0,111,13.17,24.10,213.3
"2010-09-21 01:33:00",179047,9.43,252.7,3.848,0.566,21.26,109.3626,23.26,24.26,19.19,0,111,13.17,24.09,214.7
"2010-09-21 01:33:30",179048,8.43,264,5.764,0.511,21.47,109.3623,23.26,24.23,19.22,0,111,13.17,24.09,226.0
"2010-09-21 01:34:00",179049,6.458,273.5,5.015,0.691,21.6,109.3652,23.26,24.22,19.11,0,111,13.17,24.10,235.5
"2010-09-21 01:34:30",179050,7.557,255.7,10.95,1.026,21.22,109.366,23.27,24.19,18.87,0,111,13.17,24.10,217.7
"2010-09-21 01:35:00",179051,8.4,254.5,4.728,0.251,20.99,109.3512,23.23,24.18,19.18,0,111,13.17,24.06,216.5
"2010-09-21 01:35:30",179052,8.46,251.8,13.36,1.139,21.21,109.3317,23.18,24.15,19.22,0,111,13.18,24.01,213.8
"2010-09-21 01:36:00",179053,6.649,238.8,9.66,0.979,21.31,109.3087,23.12,24.1,19.2,0,111,13.18,23.95,200.8
"2010-09-21 01:36:30",179054,6.411,248,10.39,0.292,21.28,109.3025,23.1,24.07,19.19,0,111,13.18,23.94,210.0
"2010-09-21 01:37:00",179055,5.281,267.7,5.023,0.586,21.61,109.3123,23.13,24.06,18.93,0,111,13.18,23.96,229.7
"2010-09-21 01:37:30",179056,6.371,247.9,6.602,1.435,21.12,109.3354,23.19,24.07,19.06,0,111,13.18,24.02,209.9
"2010-09-21 01:38:00",179057,7.708,246.4,4.935,0.497,20.92,109.3025,23.1,24.04,19.54,0,111,13.18,23.94,208.4
"2010-09-21 01:38:30",179058,6.718,238.4,4.033,0.27,21.37,109.2766,23.04,23.99,19.38,0,111,13.18,23.87,200.4
"2010-09-21 01:39:00",179059,6.976,239.6,2.946,0.357,21.43,109.2915,23.07,23.99,19.27,0,111,13.18,23.91,201.6
"2010-09-21 01:39:30",179060,7.527,240.2,1.619,0.201,21.33,109.2996,23.1,23.99,19.19,0,111,13.18,23.93,202.2
"2010-09-21 01:40:00",179061,9.1,249,4.368,0.874,21.17,109.3011,23.1,23.97,19.13,0,111,13.18,23.93,211.0
"2010-09-21 01:40:30",179062,9.21,254.7,3.458,0.943,21.28,109.2849,23.06,23.98,19.16,0,111,13.18,23.89,216.7
"2010-09-21 01:41:00",179063,11.07,261.2,2.378,0.253,21.6,109.277,23.04,23.97,19.17,0,111,13.18,23.87,223.2
"2010-09-21 01:41:30",179064,10.52,263.6,1.808,0.47,21.73,109.2921,23.08,23.95,18.62,0,111,13.18,23.91,225.6
"2010-09-21 01:42:00",179065,9.99,269.7,2.666,0.262,21.53,109.3096,23.12,23.96,18.69,0,111,13.18,23.95,231.7
"2010-09-21 01:42:30",179066,8.78,269.9,2.54,0.549,21.6,109.3111,23.12,24,18.63,0,111,13.18,23.96,231.9
"2010-09-21 01:43:00",179067,7.794,271.8,2.025,0.277,21.55,109.3316,23.18,24,18.48,0,111,13.18,24.01,233.8
"2010-09-21 01:43:30",179068,7.72,271.8,1.848,0.485,21.53,109.3455,23.21,24.02,18.42,0,111,13.18,24.05,233.8
"2010-09-21 01:44:00",179069,7.872,281.3,3.28,0.731,21.55,109.3522,23.23,24.06,18.41,0,111,13.18,24.06,243.3
"2010-09-21 01:44:30",179070,7.214,274.6,5.24,0.414,21.6,109.3778,23.3,24.09,18.2,0,111,13.18,24.13,236.6
"2010-09-21 01:45:00",179071,7.351,275.3,3.032,0.612,21.62,109.3815,23.31,24.12,18.18,0,111,13.18,24.14,237.3
"2010-09-21 01:45:30",179072,7.545,279.4,3.454,0.366,21.73,109.4079,23.37,24.16,17.86,0,111,13.17,24.21,241.4
"2010-09-21 01:46:00",179073,7.318,274.1,2.495,0.206,21.7,109.4281,23.43,24.2,17.76,0,111,13.18,24.26,236.1
"2010-09-21 01:46:30",179074,7.171,274.5,2.73,0.238,21.77,109.4456,23.47,24.23,17.72,0,111,13.17,24.30,236.5
"2010-09-21 01:47:00",179075,7.758,273.1,3.26,0.411,21.58,109.4467,23.47,24.25,17.76,0,111,13.17,24.31,235.1
"2010-09-21 01:47:30",179076,7.873,272.3,1.767,0.462,21.56,109.4467,23.47,24.28,17.91,0,111,13.17,24.31,234.3
"2010-09-21 01:48:00",179077,7.762,269.6,2.303,0.231,21.53,109.4467,23.47,24.28,17.85,0,111,13.17,24.31,231.6
"2010-09-21 01:48:30",179078,7.852,269,3.492,0.44,21.42,109.4467,23.47,24.3,17.96,0,111,13.17,24.31,231.0
"2010-09-21 01:49:00",179079,7.288,278.3,2.619,0.374,21.4,109.4383,23.45,24.29,18.2,0,111,13.17,24.29,240.3
"2010-09-21 01:49:30",179080,7.585,275.3,4.297,0.341,21.41,109.4169,23.4,24.28,18.19,0,111,13.17,24.23,237.3
"2010-09-21 01:50:00",179081,8.53,276.5,5.662,0.391,21.53,109.413,23.39,24.27,18.09,0,111,13.18,24.22,238.5